Meteo pe oră la Czyzeminek

Astăzi, 11 Aprilie, Duminică

Timp Temperatura Precipitaţii Vânt Presiune Umiditate
00:00 +9°C° 0 mm 1 m/s 746 mmHg 85%
01:00 +8°C° 0 mm 2 m/s 746 mmHg 84%
02:00 +8°C° 0 mm 2 m/s 745 mmHg 84%
03:00 +8°C° 0 mm 2 m/s 745 mmHg 83%
04:00 +8°C° 0 mm 3 m/s 745 mmHg 82%
05:00 +8°C° 0 mm 3 m/s 745 mmHg 79%
06:00 +9°C° 0 mm 3 m/s 745 mmHg 76%
07:00 +10°C° 0 mm 3 m/s 745 mmHg 73%
08:00 +11°C° 0 mm 4 m/s 745 mmHg 66%
09:00 +13°C° 0 mm 4 m/s 745 mmHg 59%
10:00 +14°C° 0 mm 5 m/s 745 mmHg 52%
11:00 +15°C° 0 mm 5 m/s 745 mmHg 49%
12:00 +16°C° 0 mm 6 m/s 745 mmHg 46%
13:00 +17°C° 0 mm 7 m/s 744 mmHg 42%
14:00 +16°C° 0 mm 6 m/s 744 mmHg 45%
15:00 +15°C° 0 mm 6 m/s 744 mmHg 48%
16:00 +14°C° 0 mm 5 m/s 744 mmHg 51%
17:00 +13°C° 0 mm 6 m/s 744 mmHg 56%
18:00 +13°C° 0 mm 6 m/s 745 mmHg 61%
19:00 +11°C° 0 mm 6 m/s 745 mmHg 65%
20:00 +10°C° 0 mm 6 m/s 745 mmHg 69%
21:00 +10°C° 0 mm 5 m/s 745 mmHg 72%
22:00 +10°C° 0 mm 5 m/s 745 mmHg 75%
23:00 +10°C° 0 mm 5 m/s 744 mmHg 77%

Mâine, 12 Aprilie, Luni

Timp Temperatura Precipitaţii Vânt Presiune Umiditate
00:00 +9°C° 0 mm 5 m/s 744 mmHg 79%
01:00 +9°C° 0 mm 5 m/s 744 mmHg 81%
02:00 +10°C° 0 mm 4 m/s 744 mmHg 81%
03:00 +10°C° 0 mm 4 m/s 744 mmHg 82%
04:00 +9°C° 0 mm 3 m/s 744 mmHg 82%
05:00 +10°C° 0 mm 3 m/s 744 mmHg 81%
06:00 +10°C° 0 mm 3 m/s 744 mmHg 79%
07:00 +11°C° 0 mm 3 m/s 744 mmHg 78%
08:00 +12°C° 0 mm 3 m/s 744 mmHg 71%
09:00 +13°C° 0 mm 3 m/s 744 mmHg 65%
10:00 +14°C° 0 mm 3 m/s 744 mmHg 59%
11:00 +14°C° 0 mm 3 m/s 744 mmHg 59%
12:00 +14°C° 0 mm 3 m/s 744 mmHg 59%
13:00 +15°C° 0 mm 2 m/s 744 mmHg 59%
14:00 +13°C° 0.1 mm 4 m/s 744 mmHg 66%
15:00 +12°C° 0.1 mm 5 m/s 744 mmHg 73%
16:00 +9°C° 0.1 mm 6 m/s 745 mmHg 79%
17:00 +8°C° 0 mm 6 m/s 745 mmHg 81%
18:00 +7°C° 0 mm 6 m/s 746 mmHg 82%
19:00 +4°C° 0 mm 6 m/s 747 mmHg 83%
20:00 +4°C° 0.1 mm 6 m/s 747 mmHg 84%
21:00 +3°C° 0.1 mm 6 m/s 747 mmHg 85%
22:00 +2°C° 0.1 mm 6 m/s 748 mmHg 86%
23:00 +1°C° 0.1 mm 6 m/s 748 mmHg 88%

Poimâine, 13 Aprilie, Marţi

Timp Temperatura Precipitaţii Vânt Presiune Umiditate
00:00 +1°C° 0.1 mm 6 m/s 748 mmHg 91%
01:00 -1°C° 0.1 mm 6 m/s 748 mmHg 93%
02:00 -1°C° 0.1 mm 6 m/s 748 mmHg 94%
03:00 -1°C° 0.1 mm 6 m/s 748 mmHg 94%
04:00 -1°C° 0.1 mm 6 m/s 748 mmHg 95%
05:00 0°C° 0.8 mm 5 m/s 748 mmHg 95%
06:00 0°C° 0.8 mm 5 m/s 749 mmHg 95%
07:00 0°C° 0.8 mm 5 m/s 749 mmHg 95%
08:00 0°C° 0.8 mm 5 m/s 749 mmHg 93%
09:00 -1°C° 0.8 mm 6 m/s 750 mmHg 92%
10:00 -1°C° 0.8 mm 6 m/s 750 mmHg 91%
11:00 +1°C° 0.2 mm 6 m/s 750 mmHg 86%
12:00 +1°C° 0.2 mm 6 m/s 750 mmHg 81%
13:00 +2°C° 0.2 mm 6 m/s 750 mmHg 76%
14:00 +2°C° 0 mm 6 m/s 750 mmHg 74%
15:00 +3°C° 0 mm 5 m/s 750 mmHg 71%
16:00 +3°C° 0 mm 5 m/s 749 mmHg 69%
17:00 +3°C° 0 mm 4 m/s 749 mmHg 72%
18:00 +3°C° 0 mm 3 m/s 749 mmHg 75%
19:00 +2°C° 0 mm 3 m/s 750 mmHg 78%
20:00 +2°C° 0 mm 3 m/s 749 mmHg 79%
21:00 +3°C° 0 mm 2 m/s 749 mmHg 79%
22:00 +3°C° 0 mm 2 m/s 749 mmHg 80%
23:00 +1°C° 0 mm 3 m/s 749 mmHg 78%

14 Aprilie, Miercuri

Timp Temperatura Precipitaţii Vânt Presiune Umiditate
00:00 +1°C° 0 mm 3 m/s 749 mmHg 75%
01:00 0°C° 0 mm 4 m/s 749 mmHg 73%
02:00 0°C° 0 mm 4 m/s 749 mmHg 76%
03:00 0°C° 0 mm 5 m/s 749 mmHg 79%
04:00 -1°C° 0 mm 5 m/s 749 mmHg 82%
05:00 -1°C° 0.1 mm 5 m/s 749 mmHg 84%
06:00 0°C° 0.1 mm 5 m/s 749 mmHg 86%
07:00 0°C° 0.1 mm 5 m/s 749 mmHg 87%
08:00 -1°C° 0.1 mm 6 m/s 748 mmHg 83%
09:00 0°C° 0.1 mm 7 m/s 748 mmHg 79%
10:00 0°C° 0.1 mm 8 m/s 748 mmHg 75%
11:00 0°C° 0.3 mm 8 m/s 748 mmHg 78%
12:00 0°C° 0.3 mm 8 m/s 748 mmHg 81%
13:00 0°C° 0.3 mm 7 m/s 747 mmHg 84%
14:00 0°C° 1.1 mm 8 m/s 747 mmHg 88%
15:00 -1°C° 1.1 mm 8 m/s 747 mmHg 92%
16:00 -1°C° 1.1 mm 8 m/s 747 mmHg 96%
17:00 -1°C° 1.3 mm 8 m/s 747 mmHg 97%
18:00 -2°C° 1.3 mm 8 m/s 746 mmHg 97%
19:00 -2°C° 1.3 mm 8 m/s 746 mmHg 97%
20:00 -2°C° 1.5 mm 8 m/s 746 mmHg 97%
21:00 -2°C° 1.5 mm 8 m/s 746 mmHg 98%
22:00 -4°C° 1.5 mm 8 m/s 746 mmHg 98%
23:00 -4°C° 1.5 mm 8 m/s 745 mmHg 98%

15 Aprilie, Joi

Timp Temperatura Precipitaţii Vânt Presiune Umiditate
00:00 -4°C° 1.5 mm 8 m/s 745 mmHg 98%
01:00 -3°C° 1.5 mm 7 m/s 745 mmHg 98%
02:00 -3°C° 1.4 mm 7 m/s 745 mmHg 98%
03:00 -3°C° 1.4 mm 7 m/s 744 mmHg 98%
04:00 -3°C° 1.4 mm 6 m/s 744 mmHg 99%
05:00 -3°C° 0.7 mm 6 m/s 745 mmHg 99%
06:00 -3°C° 0.7 mm 6 m/s 745 mmHg 99%
07:00 -1°C° 0.7 mm 5 m/s 745 mmHg 99%
08:00 -1°C° 0.4 mm 5 m/s 745 mmHg 99%
09:00 -1°C° 0.4 mm 5 m/s 746 mmHg 99%
10:00 -1°C° 0.4 mm 5 m/s 746 mmHg 99%
11:00 -1°C° 0.4 mm 5 m/s 746 mmHg 99%
12:00 0°C° 0.4 mm 5 m/s 746 mmHg 99%
13:00 0°C° 0.4 mm 5 m/s 747 mmHg 99%
14:00 0°C° 0.5 mm 5 m/s 747 mmHg 99%
15:00 0°C° 0.5 mm 5 m/s 747 mmHg 99%
16:00 +1°C° 0.5 mm 5 m/s 747 mmHg 99%
17:00 +1°C° 0.5 mm 5 m/s 748 mmHg 99%
18:00 +1°C° 0.5 mm 5 m/s 748 mmHg 99%
19:00 +2°C° 0.5 mm 5 m/s 749 mmHg 99%
20:00 +2°C° 0.4 mm 5 m/s 749 mmHg 99%
21:00 +2°C° 0.4 mm 5 m/s 749 mmHg 98%
22:00 +2°C° 0.4 mm 6 m/s 750 mmHg 98%
23:00 +2°C° 0.1 mm 5 m/s 750 mmHg 96%

16 Aprilie, Vineri

Timp Temperatura Precipitaţii Vânt Presiune Umiditate
00:00 +2°C° 0.1 mm 5 m/s 750 mmHg 94%
01:00 +1°C° 0.1 mm 5 m/s 751 mmHg 92%
02:00 +1°C° 0 mm 5 m/s 751 mmHg 92%
03:00 +1°C° 0 mm 5 m/s 751 mmHg 91%
04:00 0°C° 0 mm 5 m/s 752 mmHg 90%
05:00 0°C° 0 mm 5 m/s 752 mmHg 88%
06:00 +1°C° 0 mm 5 m/s 753 mmHg 86%
07:00 +1°C° 0 mm 5 m/s 753 mmHg 84%
08:00 +2°C° 0 mm 6 m/s 753 mmHg 78%
09:00 +4°C° 0 mm 6 m/s 754 mmHg 71%
10:00 +7°C° 0 mm 6 m/s 754 mmHg 64%
11:00 +8°C° 0 mm 6 m/s 754 mmHg 60%
12:00 +8°C° 0 mm 6 m/s 754 mmHg 57%
13:00 +9°C° 0 mm 6 m/s 754 mmHg 53%
14:00 +9°C° 0 mm 6 m/s 754 mmHg 53%
15:00 +10°C° 0 mm 6 m/s 754 mmHg 53%
16:00 +10°C° 0 mm 5 m/s 754 mmHg 53%
17:00 +8°C° 0 mm 5 m/s 755 mmHg 58%
18:00 +6°C° 0 mm 4 m/s 755 mmHg 63%
19:00 +5°C° 0 mm 3 m/s 755 mmHg 69%
20:00 +4°C° 0 mm 3 m/s 755 mmHg 70%
21:00 +3°C° 0 mm 3 m/s 756 mmHg 71%
22:00 +3°C° 0 mm 3 m/s 756 mmHg 72%
23:00 +2°C° 0 mm 3 m/s 756 mmHg 73%
Arată mai mult

Formular de consimțământ

Meteoprog și furnizorii noștri de servicii pot stoca și accesa date personale, precum cookies, identificatori de dispozitiv sau alte tehnologii similare pe dispozitivul dumneavoastră și procesa astfel de date pentru a personaliza conținutul și reclamele, dar și pentru a oferi caracteristici de social media și pentru a analiza traficul.

  • Stocarea și/sau accesarea informațiilor pe dispozitivul dumneavoastră

    Cookies, identificatori de dispozitiv sau alte informații pot fi stocate sau accesate pe dispozitiv în scopurile indicate mai sus.

  • Reclame și conținut personalizat, evaluarea reclamelor și a conținutului, informații despre audiențe și dezvoltarea produselor

    Reclamele și conținutul pot fi personalizate pe baza unui profil. Pot fi adăugate date suplimentare pentru a personaliza mai bine reclamele și conținutul. Performanța reclamelor și conținutului poate fi măsurată. Pot fi obținute informații despre utilizatorii care au văzut reclamele și conținutul. Aceste date pot fi utilizate pentru a dezvolta sau îmbunătăți experiența utilizatorilor, sistemele și software-ul.

Dând clic pe ‘Sunt de acord’, permiteți utilizarea cookie-urilor menționate, a identificatorilor de dispozitiv, balizelor web sau altor tehnologii similare. Setările pot fi modificate din browser-ul dispozitivului dumneavoastră.

În anumite scopuri, interesele legitime pot prima asupra consimțământului. Puteți citi mai multe informații în acest sens în Politica privind Confidențialitatea Datelor și Cookie.